Wind_Speed
16 15 15 14 11 10 12 11 10 11 12 13 14 16 18 19 20 20 19 18 18 18 17 16 16 16 17 18 20 22 24 24 24 24 24 24 24 24 25 25 26 24 24 25 26 27 28 29 29 30 30 30 31 32 33 32 30 30 31 33 33 33 33
18 18 17 16 12 11 11 9 9 9 10 11 12 14 17 18 19 20 20 19 18 17 17 17 18 18 18 18 19 21 23 24 25 25 25 26 25 26 25 26 27 27 26 26 27 29 29 30 30 31 31 31 31 33 33 32 30 30 32 34 34 34 33
20 20 19 17 15 14 12 11 11 11 12 12 13 14 16 16 17 18 18 18 17 16 17 19 21 20 20 19 19 21 22 24 25 26 26 26 26 26 26 27 28 28 28 28 28 29 30 30 31 31 32 32 32 34 34 32 31 31 34 35 35 35 34
22 22 20 17 16 15 14 14 13 13 14 14 14 16 17 17 17 17 17 17 15 15 18 21 22 22 21 21 20 21 22 23 24 26 27 27 28 28 28 29 29 29 29 29 29 30 30 30 31 31 32 32 33 34 34 33 32 33 35 36 36 36 35
24 23 19 16 16 16 15 15 15 14 14 15 15 15 16 16 17 17 18 17 14 13 17 21 22 21 21 21 20 20 21 21 23 25 26 27 28 29 29 30 30 30 30 30 30 30 30 31 32 32 32 33 34 35 35 34 33 34 36 37 37 37 36
24 22 19 17 17 18 17 16 16 15 15 15 14 14 14 15 16 16 17 16 12 12 16 20 20 20 19 19 20 20 20 21 22 24 26 27 28 29 30 30 30 30 30 30 31 31 31 32 33 32 33 35 36 36 35 35 35 35 37 37 38 37 37
24 22 21 19 18 18 19 19 17 16 16 15 14 14 14 14 14 14 16 16 12 11 16 19 20 19 19 19 20 21 22 22 24 25 27 28 29 29 30 30 30 30 30 31 32 33 33 33 34 33 34 36 37 37 37 36 36 36 37 38 38 38 38
24 23 22 21 21 21 22 20 18 17 17 17 16 16 16 15 14 14 16 16 12 13 16 18 19 19 19 20 21 22 23 24 25 26 27 28 29 29 30 30 30 30 30 32 33 34 34 34 34 35 35 37 37 37 38 38 37 38 39 39 39 39 39
24 24 24 23 22 22 21 19 18 18 19 18 18 18 19 16 14 16 18 16 14 16 18 18 19 20 20 21 23 24 25 26 26 26 27 28 28 29 30 30 30 30 31 33 34 35 35 35 35 36 36 37 38 38 39 39 38 39 40 40 40 40 40
25 23 22 19 18 19 20 19 19 20 20 20 20 20 20 18 19 21 21 19 17 17 19 20 21 21 22 23 24 25 26 27 28 28 28 28 28 29 29 30 29 30 32 34 35 35 35 36 36 37 37 38 39 39 40 40 39 40 41 41 41 41 41
26 23 21 20 20 23 23 21 21 21 22 22 22 23 22 22 25 25 23 24 22 18 20 23 23 23 24 24 25 26 27 28 28 29 29 29 28 29 29 30 30 31 33 34 35 35 36 37 37 37 38 39 40 41 41 40 40 41 41 42 42 42 42
28 26 26 26 26 26 25 23 23 24 24 24 24 25 25 26 29 28 26 28 26 21 23 26 26 26 26 25 26 26 27 28 28 29 29 29 29 30 30 31 31 32 34 35 35 35 36 37 37 38 39 40 41 41 41 41 41 42 43 43 43 43 43
30 30 30 30 29 28 27 26 26 27 27 27 26 27 28 29 32 32 31 31 28 24 25 27 27 28 27 27 27 27 27 29 29 29 29 29 30 30 31 32 32 33 34 35 35 35 36 36 37 38 39 40 42 42 42 42 43 43 44 45 45 45 45
32 32 32 31 31 30 29 29 29 30 30 29 29 31 32 34 35 36 36 34 27 24 26 28 27 28 28 28 29 28 29 30 29 29 30 30 31 32 33 33 34 34 35 35 35 36 36 36 37 38 39 41 42 43 43 43 44 44 45 46 46 46 46
34 34 34 33 32 32 32 32 32 33 32 31 33 35 36 37 39 40 40 35 26 23 27 28 27 28 29 29 30 30 30 30 30 30 30 31 32 33 34 34 35 35 36 36 36 36 35 36 37 38 40 41 43 44 44 45 45 45 47 47 48 47 47
35 35 34 34 34 34 35 34 34 34 34 35 36 37 37 39 42 42 38 33 27 26 28 28 27 28 29 30 31 31 31 31 31 31 32 32 33 33 34 35 35 36 37 37 36 36 36 37 38 39 40 42 44 45 46 46 46 47 48 48 48 47 47
33 34 34 33 35 36 37 35 35 35 36 38 38 38 39 42 43 41 35 30 28 28 28 28 28 29 30 31 31 32 32 31 31 31 32 33 34 34 34 35 36 37 37 37 36 36 37 38 39 40 41 43 44 46 47 47 47 48 48 48 47 47 47
33 34 33 34 37 38 36 35 35 37 38 39 39 41 43 44 43 38 33 31 30 30 30 30 30 30 30 31 32 33 33 32 32 32 33 33 34 34 34 35 36 36 37 37 37 37 38 39 40 41 43 44 45 46 47 48 48 48 47 47 47 47 47
36 36 36 37 39 38 36 36 38 39 39 40 42 44 45 43 40 36 34 34 33 32 31 32 31 31 31 31 32 33 33 33 33 33 33 33 34 34 34 35 36 36 37 37 37 38 39 40 41 43 44 45 46 47 48 48 48 47 47 47 47 47 48
39 39 39 41 41 39 38 40 41 41 42 44 45 45 43 40 37 35 35 35 35 33 32 32 31 32 32 32 33 33 34 34 33 33 33 33 34 34 34 35 36 36 37 37 38 39 40 41 43 44 45 46 46 48 48 48 47 47 47 47 47 48 49
42 42 43 43 44 44 44 43 43 43 44 45 44 43 41 37 34 34 35 35 33 32 30 30 30 30 30 31 32 32 32 33 33 32 33 33 34 34 35 35 36 36 37 38 39 41 42 43 44 46 46 46 47 48 48 47 46 46 47 47 48 49 50
43 44 44 45 46 46 44 42 40 41 42 41 41 41 39 33 31 33 34 32 30 29 28 27 28 28 28 29 30 30 30 31 32 32 33 34 34 34 34 35 36 36 38 39 40 41 42 44 45 46 47 47 47 48 47 46 46 46 47 48 49 50 50
41 41 42 43 43 42 40 37 36 37 38 39 40 39 35 29 28 32 32 29 28 28 27 27 26 26 27 27 28 29 30 30 31 32 33 34 33 33 34 34 35 37 38 39 41 42 43 44 46 47 48 48 47 47 47 47 47 47 48 48 49 50 50
38 39 40 41 41 40 38 36 35 35 36 38 38 37 33 29 29 30 30 28 28 28 27 27 26 26 26 26 27 29 29 30 32 33 33 33 33 33 33 34 35 37 38 40 41 42 44 45 47 48 48 48 47 48 47 47 47 48 48 48 49 49 48
38 38 40 41 40 39 38 38 37 36 36 37 37 35 33 32 30 29 29 28 28 28 28 28 28 28 28 28 29 30 30 31 32 33 33 33 33 34 34 35 36 37 39 41 42 43 45 46 47 47 48 48 48 48 47 47 47 48 48 48 48 48 47
38 39 40 41 41 40 39 39 39 37 36 36 36 35 34 34 33 31 30 29 29 28 29 29 29 29 29 29 30 30 30 31 32 33 34 35 35 36 36 36 37 39 40 42 43 44 45 45 46 47 48 48 49 48 47 47 48 47 47 47 47 46 45
39 40 41 42 42 42 41 40 39 38 38 37 36 36 35 35 35 34 33 32 31 30 30 30 30 29 29 30 30 30 31 32 33 34 35 36 36 37 37 37 39 40 42 43 44 44 45 45 46 47 48 49 49 48 47 47 47 47 46 46 46 45 44
41 41 42 42 43 42 42 42 40 39 38 38 37 37 37 37 37 37 36 35 34 33 32 32 32 31 31 31 31 31 32 33 34 35 35 36 36 37 38 39 40 41 42 42 43 44 45 46 47 48 49 49 49 47 46 46 46 46 46 46 46 45 44
42 42 42 43 43 43 43 43 41 40 39 40 39 39 39 39 39 39 39 39 37 36 36 36 35 33 32 32 32 32 33 34 35 36 36 37 37 38 39 40 40 41 42 42 44 45 46 46 47 48 48 47 46 45 45 45 45 45 46 46 45 44 44
44 44 44 45 45 45 44 44 43 42 42 42 42 42 41 41 40 40 40 40 40 39 39 39 38 37 35 33 33 33 34 35 36 37 37 37 38 38 39 40 41 41 42 43 45 46 47 47 48 48 46 45 44 44 44 44 45 45 45 44 43 43 43
45 46 47 47 46 46 46 45 45 45 44 44 44 44 43 41 40 40 40 40 41 41 41 40 40 39 37 36 35 35 35 36 36 37 37 38 38 39 40 41 42 42 43 45 46 47 47 48 48 47 46 44 44 44 44 44 45 45 43 42 42 42 42
46 48 49 48 47 47 47 47 47 46 46 46 45 45 44 42 41 40 40 41 41 41 41 40 40 39 39 38 38 37 37 38 38 38 38 38 39 40 41 42 43 43 44 46 47 47 47 47 47 47 46 45 44 44 44 44 44 43 42 41 41 42 42
49 50 50 49 48 49 49 49 49 48 47 46 45 44 43 42 41 41 41 42 41 41 41 40 40 40 40 39 39 39 39 39 40 40 40 40 41 41 42 43 44 44 45 45 46 46 46 46 46 46 46 45 44 44 44 44 43 41 41 41 41 42 42
50 51 51 50 50 50 51 50 49 48 47 45 43 43 42 42 42 42 41 41 41 41 41 40 39 39 39 40 40 41 41 41 41 42 42 43 43 43 44 45 46 45 45 45 46 46 46 46 46 46 45 44 44 43 43 42 41 40 40 41 41 41 40
50 51 51 50 50 50 50 50 49 48 47 46 44 44 43 42 42 41 41 40 40 40 40 40 39 39 40 41 42 43 43 42 42 43 44 44 45 45 46 47 47 46 46 46 47 47 47 47 46 45 44 43 42 42 42 41 40 40 40 41 41 40 39
48 49 49 49 49 49 49 48 47 47 46 46 46 45 45 44 43 42 40 39 39 40 41 41 42 43 44 45 45 44 44 43 43 44 45 46 47 47 48 48 48 47 47 48 49 49 48 47 45 44 43 42 42 41 40 39 39 40 40 40 40 39 38
47 48 49 49 48 48 48 47 46 46 46 46 46 46 46 46 45 43 40 39 40 42 43 43 45 46 46 46 45 45 45 45 45 47 49 49 49 49 50 50 49 48 48 49 49 49 48 46 45 44 42 42 41 40 39 39 40 40 40 39 38 37 37
Wind_Direction
213 207 215 227 233 245 255 262 265 261 261 267 271 272 273 274 275 275 276 277 279 282 286 286 281 277 274 270 267 264 262 262 266 271 274 278 280 282 284 286 289 292 295 297 301 305 307 310 312 315 315 314 312 310 308 307 307 309 313 315 314 314 315
222 223 226 233 239 250 259 261 256 255 262 269 272 273 273 273 272 272 273 274 276 279 283 285 286 286 286 284 279 273 268 266 267 270 273 276 280 284 285 287 290 293 295 297 300 303 305 308 311 314 315 314 312 309 307 307 307 309 313 314 314 314 315
223 230 232 236 242 248 250 247 247 252 258 264 271 275 276 275 274 271 270 271 272 276 279 280 283 286 290 292 288 282 275 271 269 270 272 275 280 285 286 287 289 292 294 296 298 301 303 306 310 312 313 313 311 308 307 308 307 309 312 313 313 314 314
224 231 235 237 241 243 245 248 252 254 259 265 271 275 276 276 275 271 268 268 272 276 275 275 278 283 289 293 291 287 281 275 272 271 272 275 280 285 286 286 288 290 292 294 296 299 303 306 308 310 311 311 308 307 308 307 306 308 311 313 313 314 315
227 233 240 244 242 243 250 258 262 265 272 278 280 279 276 273 272 273 272 271 275 280 277 276 278 282 288 292 293 290 286 280 276 274 274 277 281 284 283 284 286 289 290 293 296 300 303 305 306 307 309 308 307 307 308 307 306 308 311 313 314 314 315
232 238 245 246 243 246 253 261 266 273 283 289 290 288 284 279 276 278 278 276 278 286 283 278 278 282 287 290 290 289 287 285 282 280 279 280 281 281 281 283 286 288 290 294 298 301 304 304 304 305 306 306 306 308 308 308 307 308 311 313 314 315 315
229 236 242 244 243 247 253 259 267 277 285 291 295 296 296 293 289 288 284 278 276 283 282 279 280 283 285 285 285 284 284 283 282 281 280 279 277 277 278 281 284 287 291 296 299 301 303 302 302 304 305 305 306 308 309 308 308 308 311 313 315 315 315
226 232 236 239 241 246 254 263 272 280 285 289 295 298 298 297 298 297 290 282 281 283 280 280 282 283 285 287 287 287 287 285 283 280 277 275 274 275 277 281 284 288 293 296 298 300 301 301 302 303 303 303 306 308 309 309 308 308 310 313 315 315 315
224 229 232 237 245 255 263 269 273 275 278 284 291 295 294 294 298 297 292 289 290 286 282 283 285 287 290 292 291 291 291 289 287 283 278 276 276 277 279 281 285 289 292 294 296 298 300 301 302 302 302 302 305 308 309 308 307 307 310 312 314 315 314
229 234 243 254 263 267 266 265 266 269 274 280 285 287 290 294 296 294 293 295 292 287 288 290 290 293 295 294 294 293 291 289 287 284 282 280 279 278 279 281 285 288 290 292 295 298 301 302 302 301 301 303 305 307 308 308 307 307 309 312 314 314 314
239 245 254 260 261 260 259 260 264 268 274 278 281 285 289 294 294 293 296 299 295 291 294 294 294 295 294 293 293 291 288 286 284 282 281 280 278 278 279 282 284 287 288 291 295 299 301 301 301 300 300 303 305 306 307 307 306 307 309 312 314 314 314
238 240 243 245 248 254 259 262 265 268 272 276 280 287 291 295 295 296 300 300 297 296 296 294 293 293 292 291 290 288 286 284 281 280 279 278 278 279 281 282 283 285 287 291 295 298 299 299 298 298 300 302 303 305 307 307 307 307 309 312 313 314 314
237 238 241 244 249 255 261 265 267 269 272 275 282 289 293 294 296 298 300 298 298 300 295 290 289 289 289 289 288 287 286 284 282 280 279 279 280 281 281 281 282 285 288 291 294 295 296 296 296 296 298 300 302 305 307 307 307 308 310 312 313 313 314
239 241 244 247 251 257 262 266 269 270 273 278 284 289 292 294 296 299 299 297 300 300 291 286 285 285 286 286 286 285 284 283 282 280 279 279 280 280 280 281 283 285 288 290 291 292 293 293 293 294 297 300 303 306 307 307 308 309 310 311 312 313 313
243 245 247 251 255 259 263 266 270 273 276 280 283 286 289 293 296 297 297 299 301 295 286 283 284 283 283 283 283 283 283 282 281 280 279 278 278 278 279 281 283 285 287 289 289 290 291 291 291 294 297 301 304 306 307 308 308 309 310 311 312 312 313
248 249 251 255 258 261 263 265 268 272 275 277 279 284 289 292 294 294 296 299 299 292 285 284 284 282 282 282 283 284 284 282 281 280 280 278 278 278 279 281 282 284 286 287 287 288 289 289 292 295 298 302 304 306 307 308 309 309 309 310 310 311 311
252 253 254 256 258 260 262 265 268 271 273 275 279 285 290 291 292 293 295 296 293 290 288 286 283 282 283 284 285 285 283 282 280 279 278 278 278 279 279 280 281 283 283 284 286 287 288 290 293 296 299 302 304 305 306 307 308 308 308 308 309 310 310
253 255 255 256 257 259 263 267 269 271 273 277 283 286 288 289 290 292 294 293 290 288 287 285 283 283 284 283 283 283 282 280 278 276 275 276 276 277 277 278 280 281 282 284 285 287 289 291 294 296 299 301 302 304 305 306 307 307 307 307 308 309 310
254 255 255 255 258 262 266 269 271 273 276 280 282 284 285 287 289 292 293 291 288 287 285 284 285 285 284 282 281 280 279 278 276 274 274 274 275 276 276 277 279 280 281 283 285 287 289 291 293 295 298 300 302 303 304 305 306 306 307 308 308 310 310
254 254 255 257 262 266 267 269 272 275 278 279 280 281 282 283 287 290 290 287 286 286 286 286 286 285 284 282 280 279 278 277 276 274 274 274 275 276 277 277 278 279 281 283 285 287 288 290 292 295 297 300 302 303 304 305 306 307 307 308 309 310 311
254 255 257 259 263 265 266 269 273 275 275 276 277 278 278 281 285 287 285 284 285 286 287 286 285 284 283 281 280 279 278 277 276 276 275 276 276 276 277 277 278 279 281 283 284 285 287 289 292 295 298 301 303 303 304 305 306 307 307 309 310 312 313
253 255 257 259 261 264 267 269 271 272 273 274 275 275 277 281 284 281 280 283 286 287 286 284 282 282 281 279 279 279 278 277 277 277 276 276 277 278 278 279 279 280 281 282 283 284 286 290 293 297 300 302 303 303 304 305 307 307 308 310 311 312 313
254 256 258 260 262 265 267 268 268 270 272 273 274 275 277 279 278 276 278 283 286 286 285 284 283 282 280 279 279 278 277 276 276 276 276 277 278 278 279 280 280 280 280 281 282 285 288 292 296 298 300 301 302 303 304 306 307 308 309 310 311 312 313
255 258 260 262 263 265 266 267 268 268 270 272 274 275 277 277 275 276 280 282 283 284 284 284 283 282 281 281 280 279 278 277 277 277 277 277 277 278 280 281 281 281 281 282 284 288 291 294 297 298 299 301 303 305 306 307 308 308 309 310 311 313 314
256 258 260 262 263 265 266 268 268 267 268 270 273 276 278 278 278 279 279 279 281 284 284 283 283 283 284 283 282 282 281 280 279 279 278 278 278 280 282 283 283 283 284 285 288 291 293 296 297 298 300 302 304 306 307 307 306 306 308 310 312 314 314
257 259 261 262 264 265 267 268 270 270 270 271 273 276 278 278 279 279 278 278 280 282 282 283 283 284 284 283 283 282 281 281 281 281 280 280 281 282 283 283 283 284 286 288 290 293 295 297 298 300 302 303 304 305 305 305 304 306 309 311 312 313 313
257 259 261 263 266 267 269 270 271 272 273 274 274 275 276 277 279 280 280 280 282 283 283 282 282 282 281 280 280 280 279 279 279 280 280 281 281 281 281 281 282 284 287 289 292 295 297 299 300 301 303 303 303 303 303 303 305 308 310 311 311 311 312
258 260 262 264 266 268 270 270 271 273 274 275 276 276 277 279 282 283 283 283 283 284 283 282 281 279 278 278 277 276 276 275 275 276 278 278 279 279 279 280 282 285 289 292 295 297 299 300 301 302 302 302 302 302 303 304 307 309 310 310 310 311 311
259 261 263 265 267 268 270 271 273 274 275 276 277 278 278 280 281 283 283 283 284 283 282 280 279 278 276 276 276 275 274 275 275 276 277 278 279 279 280 282 285 289 293 295 297 297 298 300 300 301 301 301 301 302 304 306 308 309 310 310 310 311 311
260 262 263 264 265 267 269 271 273 274 275 276 277 278 279 279 279 279 280 281 281 280 280 279 279 278 277 277 277 276 276 277 277 278 279 281 282 284 285 287 289 292 295 297 296 297 297 298 299 300 300 302 303 305 306 308 309 310 311 310 310 310 310
260 262 263 264 265 267 269 270 272 274 275 276 277 277 278 278 277 276 276 276 276 276 276 277 279 280 281 280 280 279 279 280 281 282 284 286 287 288 289 290 292 294 295 296 296 296 296 297 298 300 302 305 306 306 307 309 310 311 310 309 309 309 309
261 262 263 264 265 267 268 270 271 272 274 275 275 276 276 276 275 274 273 272 272 273 274 276 278 280 282 282 282 282 283 284 285 287 288 289 289 289 289 291 293 295 295 294 294 294 295 298 300 302 304 306 306 307 308 309 310 309 308 307 308 307 307
262 262 263 264 265 267 268 269 270 271 271 272 273 274 275 275 273 272 271 271 272 273 274 276 278 279 279 280 281 283 285 287 288 289 289 289 288 288 288 290 293 295 294 293 294 296 298 300 302 303 305 306 306 307 308 308 308 306 306 306 306 306 306
263 264 264 265 266 267 268 269 269 270 270 271 271 271 271 271 271 271 272 272 273 274 275 276 276 276 276 277 280 284 286 287 288 288 287 287 288 288 288 290 293 294 294 294 296 299 300 301 302 304 305 305 306 306 306 306 305 304 304 305 305 305 306
264 265 266 266 266 267 268 269 270 271 271 270 269 268 268 268 269 270 270 271 272 273 274 274 274 275 276 279 283 285 286 286 286 286 286 288 289 289 290 292 294 296 296 296 298 299 300 301 303 304 304 304 304 304 304 303 302 302 303 304 304 305 305
264 265 266 266 267 267 268 269 270 270 270 270 269 268 268 268 268 268 268 269 270 271 272 273 275 277 279 281 283 284 285 286 286 287 288 290 291 291 292 294 296 296 296 296 298 299 300 301 303 304 303 303 303 302 301 301 301 302 303 303 304 304 304
263 264 264 265 266 267 268 268 269 269 269 269 269 269 269 269 269 269 268 268 269 270 271 274 276 279 281 283 283 284 284 284 286 287 288 289 290 290 292 294 295 295 296 296 298 299 301 302 303 303 302 302 301 300 300 300 301 302 302 302 302 302 302
Height
5903 5904 5905 5906 5907 5908 5908 5909 5909 5910 5910 5910 5911 5911 5910 5910 5910 5910 5910 5911 5911 5911 5912 5911 5911 5911 5910 5910 5910 5909 5909 5909 5909 5909 5908 5907 5907 5907 5907 5906 5905 5905 5904 5904 5902 5901 5900 5898 5897 5895 5894 5892 5890 5888 5886 5884 5883 5881 5879 5877 5874 5872 5870
5902 5903 5904 5905 5906 5906 5907 5908 5908 5908 5909 5909 5909 5909 5908 5908 5908 5908 5908 5909 5909 5910 5910 5909 5908 5908 5908 5908 5907 5906 5906 5906 5906 5906 5905 5904 5904 5903 5903 5902 5902 5901 5901 5900 5899 5898 5897 5895 5894 5892 5891 5889 5887 5885 5883 5882 5880 5878 5876 5873 5871 5869 5866
5900 5901 5902 5903 5904 5905 5906 5906 5906 5907 5907 5907 5907 5907 5906 5906 5906 5906 5906 5907 5907 5908 5908 5906 5905 5905 5905 5905 5904 5904 5903 5903 5903 5903 5902 5901 5901 5900 5900 5899 5898 5898 5898 5897 5896 5895 5894 5892 5891 5889 5888 5886 5884 5882 5880 5878 5877 5875 5872 5870 5867 5865 5863
5898 5898 5900 5901 5902 5903 5904 5904 5904 5905 5905 5905 5905 5905 5904 5904 5904 5904 5904 5905 5906 5906 5905 5904 5903 5903 5902 5902 5901 5901 5900 5900 5899 5899 5899 5898 5898 5897 5896 5896 5895 5895 5894 5894 5893 5892 5891 5889 5888 5886 5884 5883 5881 5879 5877 5875 5873 5871 5869 5866 5864 5861 5859
5895 5896 5898 5899 5901 5901 5901 5902 5902 5902 5902 5902 5903 5902 5902 5902 5902 5902 5902 5903 5905 5904 5902 5901 5900 5900 5900 5899 5899 5898 5897 5897 5896 5896 5896 5895 5894 5893 5893 5892 5892 5891 5891 5890 5889 5888 5887 5886 5884 5883 5881 5879 5878 5876 5874 5871 5869 5867 5865 5862 5860 5857 5854
5893 5895 5896 5897 5898 5898 5899 5899 5899 5900 5900 5900 5900 5900 5900 5900 5900 5900 5900 5901 5903 5901 5899 5898 5898 5898 5898 5897 5896 5895 5895 5894 5894 5893 5893 5892 5891 5890 5889 5889 5889 5888 5887 5886 5885 5884 5884 5882 5880 5879 5877 5876 5874 5872 5870 5868 5866 5863 5861 5858 5855 5853 5850
5891 5892 5893 5894 5895 5896 5896 5896 5897 5897 5897 5898 5898 5897 5897 5897 5897 5898 5897 5898 5900 5899 5897 5896 5896 5895 5895 5894 5894 5893 5892 5892 5891 5891 5890 5889 5888 5887 5886 5886 5885 5884 5883 5882 5881 5880 5880 5878 5876 5875 5873 5872 5870 5868 5866 5864 5861 5859 5856 5854 5851 5848 5846
5888 5889 5891 5892 5892 5893 5893 5893 5894 5895 5895 5895 5895 5894 5894 5894 5895 5895 5894 5895 5897 5896 5894 5894 5893 5893 5892 5891 5891 5890 5889 5889 5888 5887 5887 5886 5885 5884 5883 5883 5882 5881 5880 5878 5877 5876 5875 5874 5872 5870 5869 5867 5866 5864 5861 5859 5857 5855 5852 5850 5847 5844 5842
5885 5886 5887 5888 5889 5890 5890 5891 5892 5892 5892 5892 5892 5892 5891 5891 5892 5892 5891 5892 5894 5892 5891 5891 5890 5890 5889 5888 5887 5887 5886 5885 5884 5883 5883 5882 5881 5881 5880 5879 5878 5877 5876 5875 5874 5873 5871 5870 5868 5866 5865 5863 5861 5859 5857 5855 5853 5851 5849 5846 5843 5840 5837
5882 5884 5885 5886 5888 5887 5888 5888 5889 5889 5889 5889 5889 5889 5888 5888 5889 5888 5888 5889 5890 5890 5889 5888 5887 5887 5886 5885 5884 5883 5882 5881 5880 5879 5879 5878 5878 5877 5876 5875 5874 5873 5872 5871 5870 5869 5867 5865 5863 5862 5860 5858 5856 5855 5853 5851 5849 5847 5844 5842 5839 5836 5834
5880 5882 5883 5884 5885 5884 5884 5885 5886 5886 5886 5886 5886 5885 5885 5885 5884 5884 5885 5885 5885 5887 5886 5884 5884 5884 5883 5882 5881 5880 5879 5878 5876 5875 5874 5874 5874 5873 5872 5871 5870 5869 5869 5867 5866 5864 5863 5861 5859 5857 5855 5854 5852 5850 5848 5847 5844 5842 5840 5838 5835 5832 5829
5878 5879 5879 5880 5880 5880 5881 5882 5882 5883 5883 5883 5883 5882 5882 5882 5880 5880 5882 5881 5881 5884 5883 5880 5880 5879 5879 5878 5877 5876 5875 5874 5873 5872 5871 5870 5870 5869 5868 5867 5866 5866 5865 5863 5862 5860 5859 5857 5855 5853 5851 5849 5847 5845 5844 5842 5840 5838 5835 5833 5830 5828 5825
5874 5875 5876 5876 5877 5877 5878 5878 5879 5879 5879 5879 5880 5879 5878 5878 5877 5877 5877 5877 5878 5880 5878 5876 5876 5874 5874 5874 5873 5872 5871 5870 5869 5868 5867 5867 5866 5865 5864 5863 5862 5862 5860 5859 5858 5856 5855 5853 5851 5849 5847 5845 5843 5841 5839 5837 5835 5833 5830 5828 5825 5823 5821
5871 5872 5873 5874 5874 5875 5875 5875 5875 5875 5875 5876 5876 5875 5875 5874 5873 5873 5872 5872 5875 5876 5873 5871 5871 5870 5870 5869 5868 5867 5866 5865 5865 5864 5863 5863 5862 5861 5860 5859 5858 5857 5856 5855 5854 5852 5850 5848 5846 5844 5842 5840 5838 5836 5835 5833 5830 5828 5826 5823 5821 5818 5816
5868 5869 5870 5871 5871 5871 5871 5871 5871 5871 5872 5872 5872 5871 5871 5870 5868 5868 5867 5868 5871 5872 5868 5867 5867 5866 5865 5864 5863 5863 5862 5861 5861 5860 5860 5859 5858 5857 5856 5855 5854 5853 5852 5850 5849 5848 5846 5844 5842 5840 5838 5836 5834 5832 5830 5828 5826 5824 5821 5818 5816 5814 5811
5864 5865 5866 5867 5867 5867 5867 5868 5868 5868 5869 5868 5868 5868 5867 5866 5864 5864 5864 5864 5866 5865 5863 5863 5863 5861 5861 5860 5859 5858 5858 5857 5857 5856 5855 5854 5853 5852 5851 5850 5849 5848 5847 5846 5845 5843 5841 5839 5837 5836 5834 5832 5830 5828 5826 5824 5822 5819 5816 5814 5812 5810 5807
5860 5861 5862 5863 5863 5862 5862 5864 5865 5865 5865 5864 5864 5864 5863 5861 5860 5860 5861 5861 5860 5859 5859 5858 5858 5857 5856 5855 5854 5853 5853 5852 5852 5852 5851 5849 5848 5847 5846 5845 5845 5844 5843 5841 5840 5838 5836 5834 5833 5831 5830 5828 5826 5823 5821 5819 5817 5814 5812 5809 5807 5805 5803
5856 5857 5858 5858 5857 5857 5859 5861 5862 5862 5861 5861 5860 5859 5858 5857 5856 5856 5857 5856 5855 5854 5853 5853 5852 5852 5851 5850 5849 5848 5848 5848 5847 5847 5845 5844 5844 5843 5842 5841 5840 5839 5838 5836 5834 5833 5831 5830 5829 5827 5825 5824 5822 5819 5817 5815 5812 5810 5807 5805 5803 5801 5798
5852 5852 5853 5853 5852 5854 5857 5857 5857 5857 5858 5857 5856 5855 5854 5853 5852 5852 5852 5850 5849 5849 5848 5847 5847 5847 5846 5846 5845 5844 5843 5843 5842 5841 5840 5840 5839 5838 5837 5836 5835 5834 5833 5831 5830 5828 5827 5826 5824 5823 5821 5820 5818 5815 5813 5810 5808 5805 5802 5800 5798 5796 5793
5846 5847 5848 5847 5848 5851 5853 5853 5853 5854 5854 5852 5851 5850 5850 5850 5849 5848 5846 5845 5844 5844 5844 5843 5843 5842 5841 5841 5840 5839 5838 5838 5837 5836 5836 5835 5834 5833 5833 5832 5831 5829 5828 5827 5826 5824 5823 5822 5820 5818 5817 5815 5813 5810 5808 5805 5803 5800 5797 5795 5793 5791 5788
5841 5842 5843 5843 5844 5845 5847 5849 5851 5851 5848 5847 5846 5845 5845 5846 5847 5844 5841 5840 5840 5840 5840 5839 5838 5838 5837 5836 5835 5835 5834 5833 5832 5832 5831 5830 5829 5829 5828 5827 5826 5825 5824 5823 5822 5820 5819 5818 5816 5814 5813 5811 5808 5805 5803 5801 5798 5795 5792 5790 5787 5785 5782
5836 5837 5838 5839 5839 5840 5843 5845 5846 5845 5842 5841 5840 5839 5840 5843 5843 5839 5837 5837 5837 5837 5836 5835 5834 5834 5833 5832 5831 5831 5830 5828 5828 5827 5826 5825 5825 5824 5824 5823 5822 5821 5820 5819 5817 5816 5815 5814 5812 5810 5808 5806 5803 5800 5798 5795 5793 5790 5787 5785 5782 5780 5777
5831 5832 5832 5833 5834 5836 5838 5840 5840 5839 5837 5835 5834 5834 5837 5839 5838 5834 5833 5834 5834 5833 5832 5831 5831 5830 5829 5828 5827 5826 5825 5824 5824 5823 5822 5821 5821 5820 5820 5819 5818 5817 5816 5815 5813 5812 5811 5809 5807 5805 5802 5800 5798 5795 5793 5790 5788 5785 5783 5780 5778 5775 5773
5826 5827 5827 5827 5829 5830 5832 5833 5834 5834 5833 5830 5830 5830 5832 5833 5832 5831 5831 5831 5830 5829 5828 5827 5827 5826 5825 5824 5823 5822 5821 5821 5820 5819 5818 5818 5817 5816 5816 5815 5814 5813 5812 5810 5809 5808 5806 5804 5802 5800 5798 5796 5793 5790 5788 5786 5783 5780 5778 5776 5773 5771 5768
5821 5821 5821 5822 5823 5825 5826 5827 5828 5829 5829 5827 5826 5826 5827 5828 5828 5827 5827 5827 5826 5826 5824 5823 5823 5822 5822 5820 5819 5818 5817 5817 5816 5815 5814 5813 5813 5812 5812 5811 5809 5808 5807 5805 5804 5803 5801 5800 5797 5795 5793 5791 5788 5786 5783 5781 5778 5776 5774 5772 5769 5766 5763
5815 5816 5816 5816 5817 5819 5821 5822 5822 5823 5824 5823 5822 5823 5823 5822 5822 5822 5822 5822 5822 5821 5820 5819 5819 5819 5818 5816 5815 5814 5813 5812 5812 5811 5810 5809 5809 5808 5807 5806 5804 5803 5801 5800 5799 5798 5796 5795 5792 5790 5788 5786 5783 5781 5779 5776 5774 5772 5770 5767 5763 5760 5757
5810 5810 5811 5811 5812 5814 5815 5816 5817 5818 5818 5818 5818 5818 5817 5817 5816 5816 5816 5816 5816 5816 5815 5815 5815 5814 5814 5812 5811 5810 5809 5809 5808 5807 5806 5805 5804 5803 5802 5800 5799 5798 5796 5795 5794 5793 5791 5789 5787 5785 5783 5780 5778 5776 5774 5771 5769 5767 5764 5761 5758 5755 5752
5805 5805 5806 5807 5807 5808 5809 5810 5811 5812 5812 5812 5812 5812 5812 5812 5811 5810 5810 5810 5811 5811 5810 5810 5810 5810 5809 5808 5807 5806 5805 5804 5803 5802 5801 5800 5799 5798 5796 5795 5794 5793 5792 5790 5789 5787 5785 5783 5781 5779 5777 5775 5773 5771 5769 5766 5764 5761 5758 5755 5752 5749 5747
5800 5801 5801 5801 5802 5802 5803 5804 5805 5807 5807 5806 5806 5807 5807 5807 5806 5805 5805 5805 5805 5805 5805 5804 5804 5804 5804 5803 5802 5801 5800 5799 5798 5797 5796 5795 5794 5793 5791 5790 5789 5788 5787 5785 5783 5781 5780 5778 5776 5774 5772 5771 5768 5766 5763 5761 5758 5755 5753 5750 5747 5744 5742
5794 5795 5795 5795 5796 5797 5798 5799 5800 5800 5801 5801 5801 5801 5801 5801 5801 5801 5800 5800 5799 5799 5799 5799 5798 5798 5798 5798 5797 5796 5795 5794 5793 5792 5791 5790 5789 5787 5786 5784 5783 5782 5781 5780 5778 5776 5774 5772 5771 5769 5767 5765 5763 5760 5757 5755 5752 5750 5747 5745 5742 5739 5737
5790 5789 5788 5789 5791 5792 5793 5794 5794 5795 5795 5795 5796 5795 5795 5795 5796 5796 5795 5795 5794 5794 5793 5793 5792 5792 5792 5792 5791 5790 5790 5788 5787 5786 5785 5784 5783 5782 5780 5779 5778 5777 5776 5774 5772 5770 5768 5767 5765 5763 5761 5759 5757 5754 5751 5749 5747 5745 5742 5740 5737 5735 5733
5784 5783 5782 5784 5787 5787 5788 5789 5789 5790 5790 5790 5790 5790 5790 5790 5790 5790 5789 5789 5788 5788 5788 5787 5787 5786 5786 5785 5785 5784 5783 5782 5782 5781 5780 5779 5777 5776 5775 5773 5772 5771 5770 5768 5766 5764 5763 5761 5759 5757 5755 5753 5751 5748 5746 5744 5742 5739 5737 5735 5732 5730 5728
5777 5776 5777 5780 5782 5782 5782 5783 5783 5784 5784 5784 5784 5784 5784 5784 5784 5783 5783 5783 5783 5782 5782 5782 5781 5781 5780 5780 5779 5778 5777 5777 5776 5775 5774 5773 5771 5770 5769 5768 5766 5766 5764 5763 5761 5759 5757 5755 5753 5751 5749 5747 5745 5743 5741 5739 5736 5734 5732 5730 5727 5725 5723
5771 5770 5772 5775 5777 5776 5776 5776 5777 5778 5778 5779 5779 5779 5778 5778 5778 5778 5777 5777 5777 5777 5776 5776 5775 5775 5774 5774 5773 5773 5772 5771 5770 5769 5768 5767 5766 5765 5763 5762 5761 5760 5759 5757 5755 5753 5751 5749 5747 5745 5744 5742 5739 5737 5735 5733 5731 5729 5727 5725 5722 5720 5718
5765 5764 5766 5768 5770 5770 5769 5770 5771 5772 5772 5772 5772 5772 5772 5772 5772 5772 5772 5771 5771 5771 5771 5770 5770 5769 5769 5768 5768 5767 5766 5766 5764 5763 5762 5762 5761 5759 5757 5756 5755 5754 5752 5750 5748 5747 5745 5743 5741 5740 5738 5736 5734 5732 5730 5728 5726 5724 5722 5720 5717 5715 5713
5759 5759 5759 5761 5763 5763 5763 5765 5766 5765 5765 5766 5766 5765 5765 5765 5766 5766 5766 5766 5766 5765 5765 5765 5765 5764 5763 5763 5762 5761 5760 5759 5758 5757 5756 5756 5754 5753 5751 5750 5749 5747 5746 5744 5742 5740 5739 5737 5735 5734 5732 5730 5728 5726 5724 5722 5721 5719 5717 5715 5712 5710 5708
5753 5752 5752 5754 5756 5757 5758 5759 5759 5759 5759 5760 5760 5759 5759 5759 5759 5760 5761 5761 5760 5760 5759 5759 5759 5758 5757 5756 5756 5755 5754 5753 5752 5751 5750 5749 5748 5747 5745 5744 5743 5741 5739 5738 5736 5734 5732 5731 5729 5727 5725 5724 5722 5720 5719 5717 5715 5713 5711 5710 5708 5705 5703